Location: Catstown
(52.4386°N, 7.2633°W)
Time: 14:57:51
(UTC+00:00)

CZ-2C R/B - Pass Details

Date: 18 September 2020
Orbit: 640 x 704 km, 98.4° (Epoch: 27 October)

Event Time Altitude Azimuth Distance (km) Brightness Sun altitude
Rises 21:35:34 0° 11° (N) 2,963 7.5 -25.8°
Reaches altitude 10° 21:37:49 10° 6° (N) 2,051 6.6 -26.0°
Maximum altitude 21:42:07 50° 292° (WNW) 834 4.5 -26.5°
Enters shadow 21:43:44 33° 238° (WSW) 1,092 4.8 -26.7°
